EDW83C BIAR-BIKF

Flight info

Callsign EDW83C
Flight time N/A
Altitude 26000
Route DEVUD DEVUD2H
Aircraft A320/M-SDE3FGHIRWY/LB1

Departure

Time N/A
Airport Akureyri International Airport (BIAR)

Arrival

Time 2026-05-03 20:28
Airport Keflavik International Airport (BIKF)
Time Latitude Longitude Altitude Speed Heading
2026-05-03 20:15 64.16946 -21.17853 7238 ft 259 kts 247°
2026-05-03 20:15 64.16136 -21.21483 6806 ft 259 kts 246°
2026-05-03 20:15 64.15317 -21.25154 6402 ft 258 kts 246°
2026-05-03 20:15 64.14502 -21.28816 5949 ft 258 kts 246°
2026-05-03 20:16 64.13685 -21.32490 5503 ft 258 kts 246°
2026-05-03 20:16 64.12869 -21.36151 5073 ft 258 kts 246°
2026-05-03 20:16 64.12047 -21.39814 4991 ft 260 kts 246°
2026-05-03 20:16 64.11217 -21.43501 4997 ft 261 kts 246°
2026-05-03 20:17 64.10383 -21.47201 5000 ft 262 kts 246°
2026-05-03 20:17 64.09550 -21.50905 4998 ft 262 kts 245°
2026-05-03 20:17 64.08718 -21.54598 4998 ft 261 kts 245°
2026-05-03 20:17 64.07886 -21.58285 4987 ft 261 kts 245°
2026-05-03 20:18 64.07049 -21.61964 4987 ft 261 kts 246°
2026-05-03 20:18 64.06212 -21.65646 4986 ft 261 kts 245°
2026-05-03 20:18 64.05378 -21.69326 4985 ft 261 kts 245°
2026-05-03 20:18 64.04544 -21.73004 4978 ft 261 kts 245°
2026-05-03 20:19 64.03708 -21.76680 4925 ft 260 kts 245°
2026-05-03 20:19 64.02878 -21.80320 4518 ft 258 kts 246°
2026-05-03 20:19 64.02045 -21.83968 4071 ft 258 kts 245°
2026-05-03 20:19 64.01216 -21.87590 3628 ft 258 kts 245°
2026-05-03 20:20 64.00392 -21.91184 3468 ft 249 kts 245°
2026-05-03 20:20 63.99604 -21.94603 3482 ft 242 kts 245°
2026-05-03 20:20 63.98846 -21.98003 3486 ft 240 kts 251°
2026-05-03 20:20 63.98423 -22.01631 3491 ft 243 kts 267°
2026-05-03 20:21 63.98351 -22.05411 3514 ft 235 kts 273°
2026-05-03 20:21 63.98374 -22.08937 3510 ft 209 kts 275°
2026-05-03 20:21 63.98391 -22.12031 3543 ft 181 kts 276°
2026-05-03 20:21 63.98403 -22.14752 3526 ft 166 kts 275°
2026-05-03 20:22 63.98414 -22.17321 3510 ft 157 kts 275°
2026-05-03 20:22 63.98422 -22.19691 3501 ft 143 kts 276°
2026-05-03 20:22 63.98429 -22.21903 3439 ft 137 kts 276°
2026-05-03 20:22 63.98437 -22.24046 3308 ft 135 kts 275°
2026-05-03 20:23 63.98444 -22.26187 3143 ft 135 kts 275°
2026-05-03 20:23 63.98450 -22.28329 2961 ft 135 kts 275°
2026-05-03 20:23 63.98456 -22.30447 2781 ft 133 kts 275°
2026-05-03 20:23 63.98461 -22.32552 2598 ft 132 kts 275°
2026-05-03 20:24 63.98466 -22.34643 2412 ft 132 kts 275°
2026-05-03 20:24 63.98471 -22.36726 2229 ft 131 kts 275°
2026-05-03 20:24 63.98475 -22.38788 2048 ft 129 kts 276°
2026-05-03 20:24 63.98479 -22.40819 1867 ft 127 kts 276°
2026-05-03 20:25 63.98483 -22.42815 1689 ft 125 kts 276°
2026-05-03 20:25 63.98486 -22.44787 1511 ft 124 kts 277°
2026-05-03 20:25 63.98488 -22.46087 1396 ft 124 kts 277°
2026-05-03 20:25 63.98491 -22.48038 1220 ft 123 kts 276°
2026-05-03 20:26 63.98494 -22.49997 1046 ft 123 kts 277°
2026-05-03 20:26 63.98496 -22.51944 878 ft 122 kts 276°
2026-05-03 20:26 63.98498 -22.53869 704 ft 121 kts 276°
2026-05-03 20:26 63.98500 -22.55790 531 ft 122 kts 275°
2026-05-03 20:27 63.98501 -22.57739 367 ft 124 kts 275°
2026-05-03 20:27 63.98500 -22.59707 199 ft 124 kts 274°
2026-05-03 20:27 63.98509 -22.61388 161 ft 82 kts 272°
2026-05-03 20:27 63.98511 -22.62466 145 ft 59 kts 271°
2026-05-03 20:28 63.98511 -22.63375 137 ft 56 kts 272°
2026-05-03 20:28 63.98585 -22.63940 126 ft 26 kts 300°
2026-05-03 20:28 63.98665 -22.64142 124 ft 8 kts 341°
2026-05-03 20:28 63.98667 -22.64143 122 ft 0 kts 344°
2026-05-03 20:29 63.98668 -22.64144 122 ft 2 kts 344°
2026-05-03 20:29 63.98750 -22.64151 119 ft 23 kts
2026-05-03 20:30 63.98851 -22.64062 125 ft 17 kts 75°
2026-05-03 20:30 63.98854 -22.63742 125 ft 23 kts 89°
2026-05-03 20:30 63.98854 -22.63346 133 ft 26 kts 90°
2026-05-03 20:30 63.98862 -22.62939 137 ft 19 kts 68°
2026-05-03 20:31 63.98989 -22.62804 139 ft 22 kts 17°
2026-05-03 20:31 63.99127 -22.62709 142 ft 17 kts 17°
2026-05-03 20:31 63.99174 -22.62484 142 ft 19 kts 90°
2026-05-03 20:31 63.99173 -22.62139 142 ft 24 kts 90°
2026-05-03 20:32 63.99174 -22.61730 146 ft 27 kts 89°
2026-05-03 20:32 63.99183 -22.61466 152 ft 11 kts 58°
2026-05-03 20:32 63.99253 -22.61452 149 ft 11 kts 314°
2026-05-03 20:32 63.99258 -22.61628 143 ft 0 kts 270°